| time (UTC) | temp F | wind direction | speed knots | gust knots | rain 1hr in | rain 24hr in | rain mn in | humidity % | barometer mb |
| 20260510033758 | 58 | 176 | 0.0 | 0.0 | 0.00 | 0.05 | 0.05 | 78 | 1012.7 |
| 20260510033255 | 58 | 133 | 0.0 | 0.0 | 0.00 | 0.05 | 0.05 | 78 | 1012.5 |
| 20260510032751 | 58 | 148 | 0.0 | 0.0 | 0.00 | 0.05 | 0.05 | 78 | 1012.6 |
| 20260510032248 | 58 | 122 | 0.0 | 0.9 | 0.00 | 0.05 | 0.05 | 77 | 1012.4 |
| 20260510031743 | 59 | 166 | 0.0 | 0.9 | 0.00 | 0.05 | 0.05 | 77 | 1012.3 |
| 20260510031239 | 59 | 195 | 2.6 | 3.5 | 0.00 | 0.05 | 0.05 | 76 | 1012.5 |
| 20260510030739 | 58 | 138 | 0.0 | 0.0 | 0.00 | 0.05 | 0.05 | 77 | 1012.3 |
| 20260510030236 | 58 | 100 | 0.0 | 0.0 | 0.00 | 0.05 | 0.05 | 77 | 1012.4 |
| 20260510025733 | 58 | 128 | 0.0 | 0.9 | 0.00 | 0.05 | 0.05 | 76 | 1012.4 |
| 20260510025231 | 59 | 201 | 0.0 | 0.0 | 0.00 | 0.05 | 0.05 | 77 | 1012.4 |
| 20260510024728 | 59 | 138 | 0.0 | 0.9 | 0.00 | 0.05 | 0.05 | 76 | 1012.3 |
| 20260510024224 | 59 | 101 | 0.0 | 0.0 | 0.00 | 0.05 | 0.05 | 76 | 1012.4 |
| 20260510023720 | 59 | 217 | 0.0 | 0.9 | 0.00 | 0.05 | 0.05 | 76 | 1012.5 |
| 20260510023217 | 59 | 139 | 0.0 | 0.9 | 0.00 | 0.05 | 0.05 | 76 | 1012.5 |
| 20260510022713 | 59 | 119 | 0.0 | 0.0 | 0.00 | 0.05 | 0.05 | 76 | 1012.4 |
| 20260510022208 | 58 | 136 | 0.0 | 0.9 | 0.00 | 0.05 | 0.05 | 77 | 1012.3 |
| 20260510021703 | 58 | 131 | 0.9 | 1.7 | 0.00 | 0.05 | 0.05 | 77 | 1011.9 |
| 20260510021201 | 58 | 140 | 0.0 | 0.0 | 0.00 | 0.05 | 0.05 | 77 | 1012.1 |
| 20260510020655 | 59 | 113 | 0.0 | 0.0 | 0.00 | 0.05 | 0.05 | 76 | 1012.1 |
| 20260510020151 | 59 | 172 | 0.0 | 0.0 | 0.00 | 0.05 | 0.05 | 75 | 1012.1 |
| 20260510015647 | 59 | 146 | 0.0 | 0.0 | 0.00 | 0.05 | 0.05 | 75 | 1012.1 |
| 20260510015139 | 59 | 173 | 0.0 | 0.0 | 0.00 | 0.05 | 0.05 | 75 | 1011.7 |
| 20260510014638 | 58 | 152 | 0.0 | 0.0 | 0.00 | 0.05 | 0.05 | 76 | 1011.8 |
| 20260510014136 | 58 | 132 | 0.0 | 0.0 | 0.00 | 0.05 | 0.05 | 77 | 1011.7 |
| 20260510013636 | 59 | 116 | 0.0 | 0.0 | 0.00 | 0.05 | 0.05 | 76 | 1011.6 |
| 20260510013132 | 60 | 102 | 0.0 | 1.7 | 0.00 | 0.05 | 0.05 | 73 | 1011.4 |
| 20260510012632 | 60 | 150 | 0.0 | 0.0 | 0.00 | 0.05 | 0.05 | 73 | 1011.5 |
| 20260510012128 | 60 | 123 | 0.0 | 0.0 | 0.00 | 0.05 | 0.05 | 73 | 1011.4 |
| 20260510011623 | 60 | 157 | 0.0 | 0.9 | 0.00 | 0.05 | 0.05 | 72 | 1011.4 |
| 20260510011119 | 60 | 149 | 0.0 | 0.0 | 0.00 | 0.05 | 0.05 | 72 | 1011.3 |
| 20260510010615 | 60 | 142 | 0.0 | 0.0 | 0.00 | 0.05 | 0.05 | 73 | 1011.4 |
| 20260510010113 | 60 | 141 | 0.0 | 0.0 | 0.00 | 0.05 | 0.05 | 72 | 1011.3 |
| 20260510005608 | 60 | 112 | 0.0 | 0.0 | 0.00 | 0.05 | 0.05 | 71 | 1011.2 |
| 20260510005106 | 61 | 115 | 0.0 | 0.9 | 0.00 | 0.05 | 0.05 | 71 | 1011.2 |
| 20260510004604 | 61 | 170 | 0.0 | 0.9 | 0.00 | 0.05 | 0.05 | 71 | 1011.2 |
| 20260510004102 | 61 | 130 | 0.0 | 0.0 | 0.00 | 0.05 | 0.05 | 70 | 1011.1 |
| 20260510003558 | 62 | 160 | 0.0 | 0.0 | 0.00 | 0.05 | 0.05 | 69 | 1011.2 |
| 20260510003054 | 62 | 118 | 0.0 | 0.0 | 0.00 | 0.05 | 0.05 | 69 | 1011.1 |
| 20260510002548 | 62 | 158 | 0.0 | 0.0 | 0.00 | 0.05 | 0.05 | 68 | 1011.0 |
| 20260510002046 | 62 | 127 | 0.0 | 0.0 | 0.00 | 0.05 | 0.05 | 68 | 1010.9 |
| 20260510001543 | 63 | 171 | 0.0 | 0.0 | 0.00 | 0.05 | 0.05 | 67 | 1010.8 |
| 20260510001042 | 64 | 110 | 0.0 | 1.7 | 0.00 | 0.05 | 0.05 | 65 | 1010.8 |
| 20260510000542 | 65 | 280 | 0.9 | 2.6 | 0.00 | 0.05 | 0.05 | 63 | 1010.5 |
| 20260510000039 | 65 | 235 | 0.9 | 1.7 | 0.00 | 0.05 | 0.05 | 64 | 1010.7 |
| 20260509235535 | 66 | 212 | 0.9 | 3.5 | 0.00 | 0.05 | 0.05 | 62 | 1010.4 |
| 20260509235032 | 66 | 168 | 0.0 | 0.9 | 0.00 | 0.05 | 0.05 | 62 | 1010.4 |
| 20260509234528 | 66 | 194 | 0.0 | 2.6 | 0.00 | 0.05 | 0.05 | 61 | 1010.4 |
| 20260509234026 | 66 | 290 | 1.7 | 3.5 | 0.00 | 0.05 | 0.05 | 60 | 1010.4 |
| 20260509233523 | 66 | 285 | 1.7 | 7.0 | 0.00 | 0.05 | 0.05 | 60 | 1010.4 |
| 20260509233021 | 66 | 221 | 1.7 | 1.7 | 0.00 | 0.05 | 0.05 | 59 | 1010.7 |
| 20260509232517 | 66 | 245 | 0.9 | 5.2 | 0.00 | 0.05 | 0.05 | 60 | 1010.3 |
| 20260509232014 | 67 | 206 | 3.5 | 6.1 | 0.00 | 0.05 | 0.05 | 57 | 1010.4 |
| 20260509231510 | 68 | 247 | 0.0 | 1.7 | 0.00 | 0.05 | 0.05 | 59 | 1010.4 |
| 20260509231008 | 68 | 130 | 0.0 | 0.0 | 0.00 | 0.05 | 0.05 | 58 | 1010.7 |
| 20260509230505 | 68 | 257 | 1.7 | 2.6 | 0.00 | 0.05 | 0.05 | 56 | 1010.7 |
| 20260509230001 | 69 | 243 | 1.7 | 2.6 | 0.00 | 0.05 | 0.05 | 55 | 1010.7 |
| 20260509225457 | 68 | 258 | 0.0 | 3.5 | 0.00 | 0.05 | 0.05 | 57 | 1010.8 |
| 20260509224953 | 68 | 284 | 3.5 | 5.2 | 0.00 | 0.05 | 0.05 | 56 | 1011.1 |
| 20260509224448 | 69 | 244 | 0.0 | 0.0 | 0.00 | 0.05 | 0.05 | 59 | 1011.2 |
| 20260509223946 | 70 | 263 | 1.7 | 3.5 | 0.00 | 0.05 | 0.05 | 54 | 1011.3 |
| 20260509223442 | 69 | 201 | 0.0 | 0.9 | 0.00 | 0.05 | 0.05 | 57 | 1011.2 |
| 20260509222940 | 69 | 258 | 1.7 | 1.7 | 0.00 | 0.05 | 0.05 | 55 | 1011.2 |
| 20260509222435 | 69 | 17 | 1.7 | 3.5 | 0.00 | 0.05 | 0.05 | 55 | 1011.3 |
| 20260509221931 | 68 | 272 | 3.5 | 6.1 | 0.00 | 0.05 | 0.05 | 55 | 1011.0 |
| 20260509221428 | 67 | 237 | 1.7 | 6.1 | 0.00 | 0.05 | 0.05 | 59 | 1010.9 |
| 20260509220924 | 67 | 294 | 1.7 | 7.8 | 0.00 | 0.05 | 0.05 | 58 | 1011.1 |
| 20260509220420 | 69 | 273 | 4.3 | 7.0 | 0.00 | 0.05 | 0.05 | 56 | 1011.2 |
| 20260509215916 | 68 | 240 | 1.7 | 7.8 | 0.00 | 0.05 | 0.05 | 57 | 1011.1 |
| 20260509215411 | 67 | 286 | 3.5 | 3.5 | 0.00 | 0.05 | 0.05 | 59 | 1011.1 |
| 20260509214909 | 68 | 263 | 2.6 | 6.1 | 0.00 | 0.05 | 0.05 | 56 | 1010.9 |
| 20260509214406 | 67 | 263 | 4.3 | 7.0 | 0.00 | 0.05 | 0.05 | 57 | 1011.0 |
| 20260509213904 | 66 | 264 | 4.3 | 8.7 | 0.00 | 0.05 | 0.05 | 59 | 1010.9 |
| 20260509213359 | 67 | 308 | 2.6 | 7.0 | 0.00 | 0.05 | 0.05 | 60 | 1010.9 |
| 20260509212857 | 67 | 224 | 0.9 | 5.2 | 0.00 | 0.05 | 0.05 | 59 | 1011.0 |
| 20260509212354 | 68 | 285 | 1.7 | 7.0 | 0.00 | 0.05 | 0.05 | 61 | 1010.9 |
| 20260509211850 | 69 | 302 | 3.5 | 5.2 | 0.00 | 0.05 | 0.05 | 59 | 1010.8 |
| 20260509211346 | 69 | 275 | 5.2 | 7.0 | 0.00 | 0.05 | 0.05 | 56 | 1010.8 |
| 20260509210843 | 68 | 226 | 3.5 | 5.2 | 0.00 | 0.05 | 0.05 | 58 | 1010.8 |
| 20260509210340 | 68 | 206 | 1.7 | 3.5 | 0.00 | 0.05 | 0.05 | 60 | 1011.0 |
| 20260509205840 | 68 | 242 | 3.5 | 5.2 | 0.00 | 0.05 | 0.05 | 61 | 1010.8 |
| 20260509205334 | 65 | 258 | 4.3 | 9.6 | 0.00 | 0.05 | 0.05 | 61 | 1010.9 |
| 20260509204831 | 65 | 245 | 0.9 | 3.5 | 0.00 | 0.05 | 0.05 | 64 | 1010.7 |
| 20260509204328 | 66 | 271 | 5.2 | 12.2 | 0.00 | 0.05 | 0.05 | 59 | 1010.7 |
| 20260509203824 | 67 | 262 | 3.5 | 5.2 | 0.00 | 0.05 | 0.05 | 61 | 1010.8 |
| 20260509203321 | 68 | 290 | 4.3 | 6.1 | 0.00 | 0.05 | 0.05 | 57 | 1010.7 |
| 20260509202817 | 67 | 288 | 3.5 | 5.2 | 0.00 | 0.05 | 0.05 | 60 | 1010.8 |
| 20260509202314 | 65 | 226 | 3.5 | 8.7 | 0.00 | 0.05 | 0.05 | 61 | 1011.0 |
| 20260509201813 | 66 | 255 | 3.5 | 6.1 | 0.00 | 0.05 | 0.05 | 60 | 1010.9 |
| 20260509201310 | 66 | 262 | 2.6 | 5.2 | 0.00 | 0.05 | 0.05 | 61 | 1010.9 |
| 20260509200806 | 67 | 265 | 4.3 | 9.6 | 0.00 | 0.05 | 0.05 | 63 | 1010.9 |
| 20260509200302 | 68 | 59 | 1.7 | 3.5 | 0.00 | 0.05 | 0.05 | 62 | 1011.1 |
| 20260509195758 | 69 | 278 | 3.5 | 7.0 | 0.00 | 0.05 | 0.05 | 58 | 1011.0 |
| 20260509195253 | 68 | 5 | 0.0 | 5.2 | 0.00 | 0.05 | 0.05 | 64 | 1011.0 |
| 20260509194748 | 67 | 282 | 2.6 | 3.5 | 0.00 | 0.05 | 0.05 | 58 | 1011.1 |
| 20260509194244 | 67 | 338 | 0.9 | 7.0 | 0.00 | 0.05 | 0.05 | 64 | 1011.1 |
| 20260509193742 | 66 | 267 | 3.5 | 3.5 | 0.00 | 0.05 | 0.05 | 60 | 1011.2 |
| 20260509193241 | 65 | 278 | 1.7 | 3.5 | 0.00 | 0.05 | 0.05 | 61 | 1011.1 |
| 20260509192738 | 65 | 206 | 1.7 | 6.1 | 0.00 | 0.05 | 0.05 | 61 | 1011.0 |
| 20260509192238 | 65 | 257 | 3.5 | 3.5 | 0.00 | 0.05 | 0.05 | 67 | 1011.2 |
| 20260509191734 | 65 | 296 | 1.7 | 3.5 | 0.00 | 0.05 | 0.05 | 67 | 1011.3 |
| 20260509191230 | 64 | 338 | 2.6 | 5.2 | 0.00 | 0.05 | 0.05 | 70 | 1011.3 |
| 20260509190726 | 63 | 287 | 1.7 | 3.5 | 0.00 | 0.05 | 0.05 | 65 | 1011.2 |
| 20260509190223 | 64 | 251 | 3.5 | 5.2 | 0.00 | 0.05 | 0.05 | 65 | 1011.3 |
| 20260509185721 | 63 | 236 | 1.7 | 5.2 | 0.00 | 0.05 | 0.05 | 65 | 1011.4 |
| 20260509185217 | 63 | 228 | 1.7 | 3.5 | 0.00 | 0.05 | 0.05 | 69 | 1011.3 |
| 20260509184715 | 62 | 197 | 0.0 | 1.7 | 0.00 | 0.05 | 0.05 | 71 | 1011.4 |
| 20260509184212 | 63 | 252 | 2.6 | 2.6 | 0.00 | 0.05 | 0.05 | 70 | 1011.4 |
| 20260509183708 | 63 | 250 | 0.0 | 1.7 | 0.00 | 0.05 | 0.05 | 70 | 1011.4 |
| 20260509183203 | 63 | 245 | 0.0 | 1.7 | 0.00 | 0.05 | 0.05 | 75 | 1011.4 |
| 20260509182659 | 63 | 280 | 0.0 | 3.5 | 0.00 | 0.05 | 0.05 | 71 | 1011.3 |
| 20260509182157 | 62 | 235 | 0.0 | 3.5 | 0.00 | 0.05 | 0.05 | 74 | 1011.4 |
| 20260509181654 | 61 | 261 | 1.7 | 1.7 | 0.00 | 0.05 | 0.05 | 76 | 1011.3 |
| 20260509181152 | 61 | 274 | 1.7 | 2.6 | 0.00 | 0.05 | 0.05 | 77 | 1011.3 |
| 20260509180648 | 61 | 239 | 0.9 | 1.7 | 0.00 | 0.05 | 0.05 | 78 | 1011.1 |
| 20260509180144 | 61 | 282 | 0.9 | 2.6 | 0.00 | 0.05 | 0.05 | 80 | 1011.3 |
| 20260509175641 | 60 | 232 | 0.0 | 0.0 | 0.00 | 0.05 | 0.05 | 79 | 1011.4 |
| 20260509175138 | 60 | 291 | 0.9 | 2.6 | 0.00 | 0.05 | 0.05 | 79 | 1011.5 |
| 20260509174634 | 60 | 290 | 1.7 | 1.7 | 0.00 | 0.05 | 0.05 | 79 | 1011.3 |
| 20260509174134 | 60 | 284 | 0.0 | 0.9 | 0.00 | 0.05 | 0.05 | 84 | 1011.6 |
| 20260509173630 | 60 | 269 | 0.9 | 2.6 | 0.00 | 0.05 | 0.05 | 81 | 1011.3 |
| 20260509173126 | 59 | 266 | 0.0 | 0.0 | 0.00 | 0.05 | 0.05 | 84 | 1011.5 |
| 20260509172623 | 59 | 249 | 0.0 | 0.0 | 0.00 | 0.05 | 0.05 | 84 | 1011.4 |
| 20260509172119 | 58 | 249 | 0.0 | 0.0 | 0.00 | 0.05 | 0.05 | 87 | 1011.6 |
| 20260509171614 | 58 | 252 | 0.0 | 0.0 | 0.00 | 0.05 | 0.05 | 88 | 1011.7 |
| 20260509171111 | 58 | 251 | 0.0 | 0.0 | 0.00 | 0.05 | 0.05 | 85 | 1011.9 |
| 20260509170607 | 58 | 253 | 0.0 | 0.9 | 0.00 | 0.05 | 0.05 | 84 | 1011.8 |
| 20260509165602 | 59 | 231 | 0.0 | 0.0 | 0.00 | 0.05 | 0.05 | 82 | 1011.8 |
| 20260509165057 | 59 | 270 | 0.9 | 0.9 | 0.00 | 0.05 | 0.05 | 84 | 1011.8 |
| 20260509164554 | 59 | 268 | 0.0 | 1.7 | 0.00 | 0.05 | 0.05 | 85 | 1011.7 |
| 20260509164050 | 59 | 258 | 0.9 | 1.7 | 0.00 | 0.05 | 0.05 | 82 | 1011.7 |
| 20260509163549 | 59 | 89 | 0.0 | 0.0 | 0.00 | 0.05 | 0.05 | 83 | 1011.5 |
| 20260509163049 | 59 | 117 | 0.0 | 0.0 | 0.00 | 0.05 | 0.05 | 83 | 1011.6 |
| 20260509162546 | 58 | 283 | 0.9 | 1.7 | 0.00 | 0.05 | 0.05 | 85 | 1011.6 |
| 20260509162042 | 58 | 71 | 0.9 | 0.9 | 0.00 | 0.05 | 0.05 | 86 | 1011.5 |
| 20260509161538 | 57 | 177 | 0.9 | 0.9 | 0.00 | 0.05 | 0.05 | 87 | 1011.6 |
| 20260509161033 | 57 | 94 | 0.0 | 1.7 | 0.00 | 0.05 | 0.05 | 90 | 1011.7 |
| 20260509160530 | 58 | 89 | 0.0 | 0.0 | 0.00 | 0.05 | 0.05 | 88 | 1011.6 |
| 20260509160025 | 58 | 94 | 0.0 | 0.0 | 0.00 | 0.05 | 0.05 | 89 | 1011.8 |
| 20260509155521 | 57 | 95 | 0.0 | 0.0 | 0.00 | 0.05 | 0.05 | 88 | 1011.7 |
| 20260509155017 | 57 | 93 | 0.0 | 0.0 | 0.00 | 0.05 | 0.05 | 88 | 1011.9 |
| 20260509154514 | 57 | 92 | 0.0 | 0.0 | 0.00 | 0.05 | 0.05 | 89 | 1011.8 |
| 20260509154012 | 57 | 209 | 0.0 | 0.0 | 0.00 | 0.05 | 0.05 | 90 | 1011.9 |
| 20260509153508 | 56 | 106 | 0.0 | 0.0 | 0.00 | 0.05 | 0.05 | 90 | 1012.0 |
| 20260509153005 | 56 | 100 | 1.7 | 1.7 | 0.00 | 0.05 | 0.05 | 90 | 1011.9 |
| 20260509152501 | 56 | 106 | 0.0 | 0.9 | 0.00 | 0.05 | 0.05 | 91 | 1011.8 |
| 20260509151958 | 56 | 92 | 0.9 | 2.6 | 0.00 | 0.05 | 0.05 | 91 | 1012.0 |
| 20260509151454 | 56 | 100 | 0.0 | 0.0 | 0.00 | 0.05 | 0.05 | 92 | 1011.8 |
| 20260509150953 | 56 | 110 | 0.0 | 0.0 | 0.00 | 0.05 | 0.05 | 91 | 1012.1 |
| 20260509150449 | 56 | 98 | 0.0 | 0.0 | 0.00 | 0.05 | 0.05 | 94 | 1012.2 |
| 20260509145948 | 56 | 39 | 0.0 | 0.9 | 0.00 | 0.05 | 0.05 | 93 | 1012.3 |
| 20260509145443 | 55 | 84 | 0.0 | 0.0 | 0.00 | 0.05 | 0.05 | 93 | 1012.2 |
| 20260509144938 | 55 | 85 | 0.0 | 1.7 | 0.00 | 0.05 | 0.05 | 92 | 1012.2 |
| 20260509144436 | 55 | 88 | 0.0 | 0.9 | 0.00 | 0.05 | 0.05 | 94 | 1012.0 |
| 20260509143933 | 55 | 98 | 0.0 | 0.0 | 0.00 | 0.05 | 0.05 | 94 | 1011.9 |
| 20260509143430 | 55 | 94 | 0.0 | 0.9 | 0.00 | 0.05 | 0.05 | 94 | 1012.1 |
| 20260509142926 | 55 | 88 | 0.0 | 0.9 | 0.00 | 0.05 | 0.05 | 95 | 1012.0 |
| 20260509142423 | 54 | 73 | 0.0 | 1.7 | 0.00 | 0.05 | 0.05 | 96 | 1011.8 |
| 20260509141918 | 54 | 113 | 0.9 | 0.9 | 0.00 | 0.05 | 0.05 | 95 | 1012.1 |
| 20260509141416 | 54 | 103 | 0.0 | 0.0 | 0.00 | 0.05 | 0.05 | 95 | 1011.9 |
| 20260509140912 | 54 | 91 | 0.0 | 0.0 | 0.00 | 0.05 | 0.05 | 96 | 1012.2 |
| 20260509140409 | 54 | 92 | 0.0 | 0.0 | 0.00 | 0.05 | 0.05 | 96 | 1011.9 |
| 20260509135907 | 54 | 90 | 0.0 | 0.0 | 0.00 | 0.05 | 0.05 | 97 | 1012.0 |
| 20260509135404 | 54 | 90 | 0.0 | 0.0 | 0.00 | 0.05 | 0.05 | 97 | 1012.1 |
| 20260509134902 | 54 | 91 | 0.0 | 0.0 | 0.07 | 0.05 | 0.05 | 96 | 1012.1 |
| 20260509134359 | 53 | 89 | 0.0 | 0.0 | 0.07 | 0.05 | 0.05 | 96 | 1012.5 |
| 20260509133855 | 53 | 90 | 0.0 | 0.0 | 0.00 | 0.04 | 0.04 | 97 | 1012.3 |
| 20260509133352 | 53 | 93 | 0.0 | 0.0 | 0.00 | 0.04 | 0.04 | 97 | 1012.4 |
| 20260509132851 | 53 | 88 | 0.0 | 0.9 | 0.00 | 0.04 | 0.04 | 96 | 1012.4 |
| 20260509132349 | 53 | 93 | 0.9 | 0.9 | 0.00 | 0.04 | 0.04 | 97 | 1012.4 |
| 20260509131845 | 53 | 102 | 0.0 | 0.0 | 0.00 | 0.04 | 0.04 | 96 | 1012.5 |
| 20260509131342 | 53 | 101 | 0.0 | 0.0 | 0.00 | 0.04 | 0.04 | 96 | 1012.4 |
| 20260509130839 | 53 | 100 | 0.0 | 0.0 | 0.00 | 0.04 | 0.04 | 97 | 1012.3 |
| 20260509130334 | 53 | 100 | 0.0 | 0.0 | 0.00 | 0.04 | 0.04 | 98 | 1012.5 |
| 20260509125831 | 52 | 85 | 0.0 | 0.0 | 0.00 | 0.04 | 0.04 | 98 | 1012.5 |
| 20260509125328 | 52 | 92 | 0.0 | 0.0 | 0.00 | 0.04 | 0.04 | 98 | 1012.3 |
| 20260509124824 | 52 | 108 | 0.0 | 0.0 | 0.00 | 0.04 | 0.04 | 99 | 1012.5 |
| 20260509124321 | 52 | 102 | 0.9 | 0.9 | 0.00 | 0.04 | 0.04 | 99 | 1012.6 |
| 20260509123819 | 52 | 69 | 0.9 | 2.6 | 0.00 | 0.04 | 0.04 | 99 | 1012.6 |
| 20260509123316 | 51 | 236 | 0.0 | 0.0 | 0.00 | 0.04 | 0.04 | 99 | 1012.6 |
| 20260509122811 | 51 | 81 | 0.9 | 1.7 | 0.00 | 0.04 | 0.04 | 99 | 1012.4 |
| 20260509122309 | 51 | 83 | 0.0 | 0.0 | 0.00 | 0.04 | 0.04 | 99 | 1012.5 |
| 20260509121806 | 51 | 95 | 0.0 | 0.0 | 0.05 | 0.04 | 0.04 | 99 | 1012.6 |
| 20260509121303 | 51 | 104 | 0.0 | 0.0 | 0.05 | 0.04 | 0.04 | 99 | 1012.7 |
| 20260509120801 | 51 | 104 | 0.0 | 0.0 | 0.00 | 0.03 | 0.03 | 99 | 1012.8 |
| 20260509120259 | 51 | 104 | 0.0 | 0.0 | 0.07 | 0.03 | 0.03 | 99 | 1012.8 |
| 20260509115757 | 51 | 104 | 0.0 | 0.0 | 0.00 | 0.02 | 0.02 | 99 | 1012.6 |
| 20260509115253 | 51 | 106 | 0.0 | 0.0 | 0.00 | 0.02 | 0.02 | 99 | 1012.8 |
| 20260509114751 | 51 | 117 | 0.0 | 0.0 | 0.00 | 0.02 | 0.02 | 99 | 1012.7 |
| 20260509114250 | 51 | 133 | 0.0 | 0.0 | 0.00 | 0.02 | 0.02 | 99 | 1012.6 |
| 20260509113748 | 50 | 103 | 0.0 | 0.0 | 0.00 | 0.02 | 0.02 | 99 | 1012.6 |
| 20260509113245 | 51 | 103 | 0.0 | 0.0 | 0.00 | 0.02 | 0.02 | 99 | 1012.7 |
| 20260509112742 | 50 | 104 | 0.0 | 0.0 | 0.00 | 0.02 | 0.02 | 99 | 1012.5 |
| 20260509112239 | 50 | 102 | 0.0 | 0.0 | 0.00 | 0.02 | 0.02 | 99 | 1012.5 |
| 20260509111736 | 50 | 102 | 0.0 | 0.9 | 0.00 | 0.02 | 0.02 | 99 | 1012.2 |
| 20260509111232 | 50 | 100 | 0.0 | 0.0 | 0.00 | 0.02 | 0.02 | 99 | 1012.3 |
| 20260509110730 | 51 | 103 | 0.0 | 0.0 | 0.00 | 0.02 | 0.02 | 99 | 1012.2 |
| 20260509110226 | 50 | 103 | 0.0 | 0.0 | 0.00 | 0.02 | 0.02 | 99 | 1012.3 |
| 20260509105725 | 50 | 103 | 0.0 | 0.0 | 0.00 | 0.02 | 0.02 | 99 | 1012.2 |
| 20260509105222 | 50 | 103 | 0.0 | 0.0 | 0.00 | 0.02 | 0.02 | 98 | 1012.1 |
| 20260509104719 | 50 | 92 | 0.0 | 0.9 | 0.00 | 0.02 | 0.02 | 99 | 1012.2 |
| 20260509104216 | 50 | 96 | 0.0 | 0.0 | 0.00 | 0.02 | 0.02 | 98 | 1012.2 |
| 20260509103714 | 50 | 199 | 0.0 | 0.0 | 0.00 | 0.02 | 0.02 | 98 | 1012.1 |
| 20260509103211 | 50 | 186 | 0.0 | 0.0 | 0.05 | 0.02 | 0.02 | 97 | 1012.1 |
| 20260509102709 | 50 | 94 | 0.0 | 0.9 | 0.00 | 0.01 | 0.01 | 98 | 1012.1 |
| 20260509102206 | 50 | 75 | 0.0 | 0.0 | 0.00 | 0.01 | 0.01 | 98 | 1012.1 |
| 20260509101702 | 50 | 75 | 0.0 | 0.0 | 0.00 | 0.01 | 0.01 | 98 | 1012.0 |
| 20260509101158 | 51 | 75 | 0.9 | 0.9 | 0.00 | 0.01 | 0.01 | 97 | 1012.1 |
| 20260509100656 | 51 | 75 | 0.0 | 0.0 | 0.00 | 0.01 | 0.01 | 97 | 1012.3 |
| 20260509100153 | 51 | 64 | 0.0 | 0.9 | 0.00 | 0.01 | 0.01 | 95 | 1012.2 |
| 20260509095650 | 51 | 33 | 0.0 | 0.0 | 0.00 | 0.01 | 0.01 | 93 | 1012.2 |
| 20260509095147 | 51 | 28 | 0.0 | 0.0 | 0.00 | 0.01 | 0.01 | 93 | 1012.2 |
| 20260509094643 | 51 | 26 | 0.0 | 0.0 | 0.00 | 0.01 | 0.01 | 93 | 1012.5 |
| 20260509094140 | 51 | 27 | 0.0 | 0.0 | 0.00 | 0.01 | 0.01 | 93 | 1012.4 |
| 20260509093639 | 52 | 28 | 0.0 | 0.0 | 0.00 | 0.01 | 0.01 | 91 | 1012.4 |
| 20260509093136 | 52 | 329 | 0.0 | 0.0 | 0.07 | 0.01 | 0.01 | 88 | 1012.3 |
| 20260509092634 | 52 | 310 | 0.0 | 0.0 | 0.07 | 0.01 | 0.01 | 88 | 1012.5 |
| 20260509092132 | 53 | 13 | 0.0 | 0.9 | 0.00 | 0.00 | 0.00 | 86 | 1012.6 |
| 20260509091630 | 53 | 276 | 0.0 | 0.0 | 0.00 | 0.00 | 0.00 | 84 | 1012.5 |
| 20260509091125 | 53 | 291 | 0.9 | 0.9 | 0.00 | 0.00 | 0.00 | 82 | 1012.6 |
| 20260509090623 | 54 | 278 | 0.0 | 0.9 | 0.00 | 0.00 | 0.00 | 82 | 1012.7 |
| 20260509090120 | 54 | 164 | 0.0 | 0.0 | 0.00 | 0.00 | 0.00 | 79 | 1012.8 |
| 20260509085618 | 54 | 164 | 0.0 | 0.0 | 0.00 | 0.00 | 0.00 | 77 | 1012.7 |
| 20260509085113 | 54 | 164 | 0.0 | 0.9 | 0.00 | 0.00 | 0.00 | 77 | 1012.6 |
| 20260509084611 | 55 | 254 | 0.9 | 0.9 | 0.00 | 0.00 | 0.00 | 77 | 1012.7 |
| 20260509084108 | 55 | 246 | 0.9 | 3.5 | 0.00 | 0.00 | 0.00 | 75 | 1012.9 |
| 20260509083605 | 55 | 258 | 2.6 | 5.2 | 0.00 | 0.00 | 0.00 | 74 | 1012.8 |
| 20260509083102 | 56 | 256 | 1.7 | 1.7 | 0.00 | 0.00 | 0.00 | 72 | 1012.6 |
| 20260509082559 | 56 | 243 | 1.7 | 5.2 | 0.00 | 0.00 | 0.00 | 71 | 1012.6 |
| 20260509082055 | 57 | 330 | 0.9 | 3.5 | 0.00 | 0.00 | 0.00 | 69 | 1012.7 |
| 20260509081552 | 57 | 255 | 5.2 | 8.7 | 0.00 | 0.00 | 0.00 | 68 | 1012.7 |
| 20260509081049 | 57 | 278 | 7.0 | 9.6 | 0.00 | 0.00 | 0.00 | 65 | 1012.9 |
| 20260509080547 | 57 | 291 | 8.7 | 13.9 | 0.00 | 0.00 | 0.00 | 66 | 1012.7 |
| 20260509080045 | 56 | 182 | 6.1 | 14.8 | 0.00 | 0.00 | 0.00 | 66 | 1012.7 |
| 20260509075542 | 55 | 212 | 1.7 | 5.2 | 0.00 | 0.00 | 0.00 | 71 | 1012.5 |
| 20260509075040 | 56 | 178 | 0.0 | 2.6 | 0.00 | 0.00 | 0.00 | 69 | 1012.3 |
| 20260509074537 | 55 | 285 | 0.0 | 5.2 | 0.00 | 0.00 | 0.00 | 68 | 1012.2 |
| 20260509074033 | 53 | 208 | 0.0 | 0.0 | 0.00 | 0.00 | 0.00 | 76 | 1012.2 |
| 20260509073530 | 53 | 109 | 0.0 | 0.0 | 0.00 | 0.00 | 0.00 | 83 | 1011.9 |
| 20260509073026 | 53 | 181 | 0.0 | 0.0 | 0.00 | 0.00 | 0.00 | 77 | 1011.8 |
| 20260509072523 | 54 | 108 | 0.0 | 0.0 | 0.00 | 0.00 | 0.00 | 80 | 1011.7 |
| 20260509072020 | 55 | 196 | 0.0 | 0.0 | 0.00 | 0.00 | 0.00 | 74 | 1011.8 |
| 20260509071516 | 55 | 196 | 0.0 | 1.7 | 0.00 | 0.00 | 0.00 | 73 | 1011.7 |
| 20260509071014 | 56 | 166 | 0.9 | 5.2 | 0.00 | 0.00 | 0.00 | 70 | 1011.6 |
| 20260509070511 | 55 | 203 | 4.3 | 7.0 | 0.00 | 0.00 | 0.00 | 70 | 1012.0 |
| 20260509070008 | 56 | 178 | 1.7 | 2.6 | 0.00 | 0.00 | 0.00 | 70 | 1011.7 |
| 20260509065503 | 55 | 66 | 0.0 | 3.5 | 0.00 | 0.00 | 0.00 | 69 | 1011.8 |
| 20260509064959 | 54 | 112 | 0.0 | 0.0 | 0.00 | 0.00 | 0.00 | 80 | 1011.8 |
| 20260509064457 | 53 | 120 | 0.0 | 0.0 | 0.00 | 0.00 | 0.00 | 72 | 1011.8 |
| 20260509063955 | 54 | 105 | 0.9 | 1.7 | 0.00 | 0.00 | 0.00 | 78 | 1011.7 |
| 20260509063450 | 55 | 157 | 0.0 | 0.0 | 0.00 | 0.00 | 0.00 | 68 | 1011.8 |
| 20260509062947 | 55 | 101 | 0.0 | 0.0 | 0.00 | 0.00 | 0.00 | 69 | 1011.7 |
| 20260509062445 | 54 | 100 | 0.0 | 0.0 | 0.00 | 0.00 | 0.00 | 67 | 1011.7 |
| 20260509061942 | 54 | 100 | 0.0 | 0.0 | 0.00 | 0.00 | 0.00 | 70 | 1011.5 |
| 20260509061439 | 54 | 100 | 0.0 | 0.0 | 0.00 | 0.00 | 0.00 | 69 | 1011.7 |
| 20260509060936 | 54 | 100 | 0.0 | 0.0 | 0.00 | 0.00 | 0.00 | 68 | 1011.7 |
| 20260509060434 | 54 | 100 | 0.0 | 0.0 | 0.00 | 0.00 | 0.00 | 71 | 1011.7 |
| 20260509055929 | 54 | 100 | 0.0 | 0.0 | 0.00 | 0.00 | 0.00 | 72 | 1011.6 |
| 20260509055424 | 53 | 100 | 0.0 | 0.0 | 0.00 | 0.00 | 0.00 | 72 | 1011.9 |
| 20260509054921 | 53 | 100 | 0.0 | 0.0 | 0.00 | 0.00 | 0.00 | 73 | 1011.8 |
| 20260509054418 | 53 | 101 | 0.0 | 0.0 | 0.00 | 0.00 | 0.00 | 72 | 1011.8 |
| 20260509053917 | 53 | 101 | 0.0 | 0.0 | 0.00 | 0.00 | 0.00 | 72 | 1011.8 |
| 20260509053415 | 52 | 100 | 0.0 | 0.0 | 0.00 | 0.00 | 0.00 | 79 | 1011.9 |
| 20260509052912 | 52 | 100 | 0.0 | 0.0 | 0.00 | 0.00 | 0.00 | 83 | 1012.0 |
| 20260509052409 | 52 | 100 | 0.0 | 0.0 | 0.00 | 0.00 | 0.00 | 82 | 1012.1 |
| 20260509051907 | 52 | 101 | 0.0 | 0.0 | 0.00 | 0.00 | 0.00 | 84 | 1012.2 |
| 20260509051404 | 53 | 104 | 0.9 | 1.7 | 0.00 | 0.00 | 0.00 | 82 | 1012.2 |
| 20260509050901 | 52 | 108 | 0.0 | 0.0 | 0.00 | 0.00 | 0.00 | 79 | 1012.2 |
| 20260509050358 | 53 | 107 | 0.0 | 0.0 | 0.00 | 0.00 | 0.00 | 83 | 1012.1 |
| 20260509045855 | 53 | 107 | 0.0 | 0.0 | 0.00 | 0.00 | 0.00 | 80 | 1012.2 |
| 20260509045352 | 53 | 107 | 0.0 | 0.0 | 0.00 | 0.00 | 0.00 | 75 | 1012.2 |
| 20260509044849 | 53 | 107 | 0.0 | 0.0 | 0.00 | 0.00 | 0.00 | 76 | 1012.4 |
| 20260509044346 | 53 | 107 | 0.0 | 0.0 | 0.00 | 0.00 | 0.00 | 76 | 1012.3 |
| 20260509043843 | 53 | 107 | 0.0 | 0.0 | 0.00 | 0.00 | 0.00 | 80 | 1012.4 |
| 20260509043338 | 53 | 107 | 0.0 | 0.0 | 0.00 | 0.00 | 0.00 | 81 | 1012.6 |
| 20260509042834 | 54 | 107 | 0.0 | 0.0 | 0.00 | 0.00 | 0.00 | 79 | 1012.6 |
| 20260509042331 | 55 | 107 | 0.0 | 0.0 | 0.00 | 0.00 | 0.00 | 70 | 1012.6 |
| 20260509041828 | 55 | 107 | 0.0 | 0.0 | 0.00 | 0.00 | 0.00 | 66 | 1012.6 |
| 20260509041325 | 55 | 107 | 0.0 | 0.0 | 0.00 | 0.00 | 0.00 | 64 | 1012.8 |
| 20260509040823 | 55 | 107 | 0.0 | 0.0 | 0.00 | 0.00 | 0.00 | 66 | 1013.0 |
| 20260509040320 | 55 | 107 | 0.0 | 0.0 | 0.00 | 0.00 | 0.00 | 66 | 1012.8 |
| 20260509035817 | 54 | 107 | 0.0 | 0.0 | 0.00 | 0.00 | 0.00 | 71 | 1012.6 |
| 20260509035314 | 54 | 107 | 0.0 | 0.0 | 0.00 | 0.00 | 0.00 | 77 | 1012.8 |
| 20260509034810 | 54 | 107 | 0.0 | 0.0 | 0.00 | 0.00 | 0.00 | 77 | 1012.7 |
| 20260509034308 | 54 | 107 | 0.0 | 0.0 | 0.00 | 0.00 | 0.00 | 71 | 1012.7 |